[[{"header":{"parameterUnit":"m.s-1","parameterCategory":1,"la1":30.2991,"la2":30.254,"lo1":-89.0895,"lo2":-89.0444,"dy":0.0017,"dx":0.0017,"nx":28,"ny":28,"refTime":"2024-10-21T09:00:00:Z","depth":0,"parameterNumber":2,"parameterNumberName":"U-component_of_WINDS"},"data":[0,0,0,0,0,0,0,0,0,0,0,0,0,0,0,0,0,0,0,0,0,0,0,0,0,0,0,0,0,0,0,0,0,0,0,0,0,0,0,0,0,0,0,0,0,0,0,0,0,0,0,0,0,0,0,0,0,0,-3.106,-3.106,0,-3.1139,-3.1139,-3.114,-3.1038,-3.1034,-3.103,-3.1027,-3.111,-3.1115,-3.1121,0,0,0,0,0,0,0,0,0,0,0,0,0,-3.0821,-3.0826,-3.1059,-3.1061,-3.1062,-3.1138,-3.114,-3.1141,-3.1038,-3.1034,-3.1029,-3.1025,-3.1108,-3.1115,-3.1121,0,0,0,0,0,0,0,0,0,0,0,0,0,-3.0915,-3.0828,-3.1059,-3.102,-3.1017,-3.1138,-3.114,-3.1141,-3.1039,-3.1034,-3.1028,-3.1023,-3.1106,-3.1114,-3.1122,-3.1287,0,0,-3.1148,-3.1152,0,0,0,0,0,0,0,0,-3.091,-3.0924,-3.1025,-3.1023,-3.102,-3.1072,-3.1086,-3.119,-3.1041,-3.1031,-3.1027,-3.102,-3.1102,-3.111,-3.1138,-3.1291,-3.1294,-3.1149,-3.1154,-3.1158,-3.116,0,0,0,0,0,0,0,-3.0903,-3.092,-3.1091,-3.1026,-3.1023,-3.0998,-3.1005,-3.1105,-3.1097,-3.1031,-3.1024,-3.1035,-3.11,-3.113,-3.1139,-3.1296,-3.1149,-3.1157,-3.1162,-3.1165,-3.1588,-3.1594,0,0,0,0,0,0,-3.0901,-3.0915,-3.1088,-3.1093,-3.095,-3.1007,-3.1015,-3.1061,-3.1096,-3.1095,-3.1039,-3.103,-3.1118,-3.1129,-3.1141,-3.1337,-3.1158,-3.1166,-3.1171,-3.1582,-3.1589,-3.1596,0,0,0,0,0,0,-3.0897,-3.0918,-3.1085,-3.1002,-3.1022,-3.1017,-3.107,-3.1066,-3.1096,-3.1102,-3.11,-3.1072,-3.1114,-3.1129,-3.1251,-3.1338,-3.117,-3.1178,-3.1575,-3.1584,-3.1593,-3.1729,0,0,0,0,0,0,-3.089,-3.0917,-3.0979,-3.1004,-3.1026,-3.1194,-3.1075,-3.1071,-3.111,-3.1098,-3.1131,-3.1131,-3.1111,-3.1239,-3.126,-3.1347,-3.1184,-3.1567,-3.1579,-3.159,-3.1717,-3.1742,-3.1763,0,0,0,0,0,-3.0882,-3.1015,-3.0983,-3.1004,-3.1104,-3.1199,-3.1212,-3.1185,-3.1118,-3.1181,-3.1184,-3.113,-3.1325,-3.1253,-3.1275,-3.1366,-3.1561,-3.1575,-3.1589,-3.1706,-3.1737,-3.1762,0,0,0,0,0,0,-3.1001,-3.1017,-3.0982,-3.1127,-3.1162,-3.1182,-3.126,-3.1218,-3.1273,-3.126,-3.1224,-3.1233,-3.1363,-3.1376,-3.1295,-3.1527,-3.1432,-3.1451,-3.1514,-3.1543,-3.1566,-3.156,-3.1191,0,0,0,0,0,-3.1044,-3.1119,-3.1129,-3.1256,-3.1276,-3.1265,-3.1305,-3.1281,-3.1317,-3.1332,-3.1344,-3.1381,-3.145,-3.1497,-3.1561,-3.1717,-3.1723,-3.1791,-3.1814,-3.1833,-3.185,-3.1934,-3.1965,-3.1641,-3.1641,-3.1641,0,0,-3.1134,-3.1152,-3.1202,-3.1281,-3.1305,-3.1384,-3.1279,-3.1367,-3.1425,-3.1345,-3.1461,-3.1472,-3.151,-3.1651,-3.1713,-3.1666,-3.1941,-3.1851,-3.1866,-3.1873,-3.1952,-3.1982,-3.201,-3.165,-3.1649,-3.1647,0,0,-3.1338,-3.1359,-3.1467,-3.1493,-3.1532,-3.1523,-3.155,-3.1575,-3.1579,-3.1694,-3.1636,-3.1705,-3.1825,-3.1855,-3.1886,-3.2101,-3.2054,-3.2123,-3.2245,-3.2327,-3.2352,-3.2375,-3.2452,-3.248,-3.214,-3.214,-3.214,0,-3.1445,-3.1562,-3.1528,-3.1621,-3.1657,-3.1587,-3.1696,-3.1724,-3.1782,-3.1809,-3.1754,-3.1903,-3.1925,-3.2071,-3.2123,-3.215,-3.2179,-3.212,-3.2351,-3.2373,-3.2394,-3.2467,-3.2497,-3.2148,-3.2147,-3.2146,-3.2146,0,-3.1692,-3.1773,-3.1856,-3.1913,-3.1958,-3.2059,-3.2041,-3.2091,-3.2063,-3.2061,-3.2179,-3.2202,-3.227,-3.2302,-3.2276,-3.2445,-3.2415,-3.2357,-3.2261,-3.2434,-3.2502,-3.253,-3.216,-3.2157,-3.2155,-3.2153,0,0,-3.1975,-3.2011,-3.2042,-3.2067,-3.2103,-3.2166,-3.2263,-3.2328,-3.2373,-3.2414,-3.2495,-3.2598,-3.2544,-3.258,-3.2556,-3.2628,-3.2797,-3.2561,-3.2561,-3.2605,-3.2986,-3.3031,-3.3064,-3.2765,-3.277,-3.2775,-3.2983,0,-3.218,-3.2348,-3.232,-3.2483,-3.2558,-3.2492,-3.2577,-3.2608,-3.2609,-3.2673,-3.2672,-3.2747,-3.2669,-3.269,-3.2759,-3.2762,-3.2874,-3.2747,-3.2842,-3.2845,-3.2836,-3.3099,-3.3147,-3.3343,-3.301,-3.3014,-3.3017,0,-3.2442,-3.2493,-3.2663,-3.2687,-3.2718,-3.2795,-3.2852,-3.2914,-3.2948,-3.2943,-3.2983,-3.2945,-3.3042,-3.2944,-3.3078,-3.2992,-3.3029,-3.3037,-3.3043,-3.3053,-3.2943,-3.3117,-3.3405,-3.3435,-3.3059,-3.3056,-3.3053,0,-3.2633,-3.2744,-3.286,-3.2883,-3.2914,-3.297,-3.2985,-3.3014,-3.3055,-3.3105,-3.3131,-3.3192,-3.3226,-3.3275,-3.3255,-3.3184,-3.3393,-3.3292,-3.3392,-3.3393,-3.3441,-3.3438,-3.374,-3.3463,-3.3462,-3.3462,-3.3461,0,-3.2866,-3.2973,-3.2946,-3.3018,-3.3136,-3.3103,-3.3221,-3.3228,-3.3254,-3.3326,-3.3272,-3.3341,-3.331,-3.3377,-3.3362,-3.3476,-3.3491,-3.349,-3.3485,-3.3496,-3.3497,-3.3521,-3.3508,-3.3469,-3.3468,-3.3466,-3.3465,0,-3.31,-3.3086,-3.3209,-3.3227,-3.3234,-3.3321,-3.3337,-3.3404,-3.3399,-3.3492,-3.3511,-3.3504,-3.358,-3.3565,-3.3649,-3.3638,-3.3781,-3.3759,-3.377,-3.3765,-3.3866,-3.3858,-3.4195,-3.4238,-3.3932,-3.3935,-3.3937,0,-3.325,-3.3331,-3.3358,-3.3402,-3.3422,-3.3494,-3.3535,-3.3505,-3.355,-3.3595,-3.3657,-3.3728,-3.3783,-3.3908,-3.3911,-3.3975,-3.3954,-3.4068,-3.3964,-3.3972,-3.3957,-3.3953,-3.3962,-3.409,-3.4093,-3.4096,-3.4098,0,-3.3519,-3.3508,-3.3569,-3.3628,-3.3679,-3.3724,-3.3764,-3.3803,-3.3776,-3.383,-3.3906,-3.3949,-3.4034,-3.4106,-3.4165,-3.4181,-3.4136,-3.4131,-3.4157,-3.417,-3.4174,-3.4174,-3.3828,-3.4124,-3.4121,-3.4119,-3.4118,-3.4117,-3.3717,-3.3785,-3.3815,-3.3885,-3.3911,-3.395,-3.4014,-3.4017,-3.408,-3.4147,-3.4125,-3.4213,-3.4244,-3.4319,-3.4342,-3.441,-3.4368,-3.4406,-3.4416,-3.4427,-3.4439,-3.4161,-3.4421,-3.442,-3.4419,-3.4418,-3.4418,0,-3.3983,-3.3999,-3.4063,-3.4121,-3.4176,-3.4127,-3.4168,-3.4218,-3.4296,-3.4329,-3.4384,-3.4472,-3.4541,-3.4549,-3.4614,-3.4667,-3.4648,-3.4685,-3.4682,-3.4686,-3.4473,-3.4444,-3.4699,-3.4699,-3.4699,-3.4699,-3.4699,-3.4699,-3.4129,-3.4243,-3.4235,-3.4361,-3.4376,-3.4461,-3.4489,-3.4524,-3.455,-3.4651,-3.4708,-3.4712,-3.4735,-3.4801,-3.4862,-3.4862,-3.4889,-3.4935,-3.4928,-3.4729,-3.4701,-3.4675,-3.4647,-3.4941,-3.4941,-3.5135,-3.5137,-3.5139]},{"header":{"parameterUnit":"m.s-1","parameterCategory":1,"la1":30.2991,"la2":30.254,"lo1":-89.0895,"lo2":-89.0444,"dy":0.0017,"dx":0.0017,"nx":28,"ny":28,"refTime":"2024-10-21T09:00:00:Z","depth":0,"parameterNumber":3,"parameterNumberName":"V-component_of_WINDS"},"data":[0,0,0,0,0,0,0,0,0,0,0,0,0,0,0,0,0,0,0,0,0,0,0,0,0,0,0,0,0,0,0,0,0,0,0,0,0,0,0,0,0,0,0,0,0,0,0,0,0,0,0,0,0,0,0,0,0,0,-2.1599,-2.1599,0,-2.1597,-2.1597,-2.1597,-2.1579,-2.1578,-2.1578,-2.1578,-2.1575,-2.1576,-2.1576,0,0,0,0,0,0,0,0,0,0,0,0,0,-2.1584,-2.1584,-2.1599,-2.1599,-2.1599,-2.1597,-2.1597,-2.1597,-2.1579,-2.1578,-2.1578,-2.1577,-2.1575,-2.1576,-2.1576,0,0,0,0,0,0,0,0,0,0,0,0,0,-2.1587,-2.1584,-2.1599,-2.1589,-2.1589,-2.1597,-2.1597,-2.1597,-2.1579,-2.1578,-2.1578,-2.1577,-2.1575,-2.1576,-2.1576,-2.1594,0,0,-2.1578,-2.1578,0,0,0,0,0,0,0,0,-2.1587,-2.1588,-2.1591,-2.159,-2.1589,-2.1588,-2.1591,-2.1596,-2.1579,-2.1583,-2.1578,-2.1577,-2.158,-2.158,-2.1581,-2.1594,-2.1593,-2.1578,-2.1578,-2.1579,-2.1579,0,0,0,0,0,0,0,-2.1587,-2.1588,-2.1598,-2.1591,-2.159,-2.1585,-2.1584,-2.1592,-2.1585,-2.1582,-2.1581,-2.1581,-2.1579,-2.1581,-2.1581,-2.1593,-2.1578,-2.1578,-2.1579,-2.1579,-2.1618,-2.1619,0,0,0,0,0,0,-2.1588,-2.1588,-2.1598,-2.1598,-2.1586,-2.1586,-2.1585,-2.1589,-2.1585,-2.1584,-2.1582,-2.158,-2.158,-2.158,-2.1581,-2.16,-2.1579,-2.1579,-2.1579,-2.1617,-2.1618,-2.1619,0,0,0,0,0,0,-2.1588,-2.1589,-2.1598,-2.1593,-2.1593,-2.1587,-2.1591,-2.1589,-2.1591,-2.1585,-2.1583,-2.1585,-2.158,-2.158,-2.159,-2.16,-2.1579,-2.158,-2.1617,-2.1618,-2.1619,-2.1639,0,0,0,0,0,0,-2.1587,-2.1589,-2.1596,-2.1593,-2.1594,-2.1608,-2.1591,-2.159,-2.1592,-2.159,-2.1587,-2.1586,-2.1579,-2.159,-2.1591,-2.16,-2.158,-2.1616,-2.1617,-2.1618,-2.1637,-2.164,-2.1643,0,0,0,0,0,-2.1587,-2.1602,-2.1597,-2.1598,-2.1602,-2.1609,-2.1609,-2.1602,-2.1593,-2.1599,-2.1595,-2.1586,-2.1599,-2.1591,-2.1592,-2.1602,-2.1615,-2.1617,-2.1618,-2.1636,-2.164,-2.1643,0,0,0,0,0,0,-2.1607,-2.1601,-2.1595,-2.161,-2.161,-2.1606,-2.1614,-2.1606,-2.1608,-2.1607,-2.1597,-2.1596,-2.1607,-2.1606,-2.1597,-2.1617,-2.1605,-2.1607,-2.1618,-2.1622,-2.1625,-2.1624,-2.1581,0,0,0,0,0,-2.1613,-2.1619,-2.1614,-2.1627,-2.1627,-2.1621,-2.1623,-2.1617,-2.1617,-2.1617,-2.1613,-2.1613,-2.1616,-2.1619,-2.1622,-2.1637,-2.1635,-2.1644,-2.1647,-2.1649,-2.1651,-2.1657,-2.166,-2.1624,-2.1624,-2.1624,0,0,-2.1625,-2.1623,-2.1628,-2.1631,-2.163,-2.1636,-2.1621,-2.1628,-2.1632,-2.1618,-2.1626,-2.1624,-2.1623,-2.1635,-2.164,-2.1634,-2.1661,-2.1651,-2.1653,-2.1653,-2.1659,-2.1662,-2.1665,-2.1625,-2.1625,-2.1625,0,0,-2.1651,-2.1651,-2.1661,-2.166,-2.1659,-2.1655,-2.1657,-2.1654,-2.1651,-2.1661,-2.1649,-2.1654,-2.1661,-2.166,-2.166,-2.1684,-2.1675,-2.1686,-2.1701,-2.1707,-2.171,-2.1712,-2.1719,-2.1722,-2.1687,-2.1688,-2.1688,0,-2.1666,-2.1675,-2.1667,-2.1674,-2.1676,-2.1663,-2.1673,-2.1673,-2.1673,-2.1673,-2.1667,-2.1674,-2.1673,-2.1683,-2.1689,-2.1691,-2.1692,-2.1686,-2.171,-2.1712,-2.1714,-2.1721,-2.1724,-2.1689,-2.1689,-2.1688,-2.1688,0,-2.1694,-2.17,-2.1708,-2.1708,-2.171,-2.1719,-2.1711,-2.1715,-2.1708,-2.1704,-2.1713,-2.171,-2.1712,-2.1714,-2.1708,-2.1724,-2.172,-2.1712,-2.1699,-2.1719,-2.1725,-2.1728,-2.169,-2.169,-2.169,-2.1689,0,0,-2.1731,-2.1726,-2.1729,-2.1729,-2.1726,-2.1731,-2.1738,-2.174,-2.1742,-2.1743,-2.1748,-2.1754,-2.1746,-2.1746,-2.174,-2.1745,-2.1763,-2.1736,-2.1736,-2.174,-2.1778,-2.1784,-2.1787,-2.1757,-2.1758,-2.1758,-2.1778,0,-2.1755,-2.1768,-2.176,-2.1774,-2.1778,-2.1766,-2.1772,-2.1771,-2.1767,-2.177,-2.1766,-2.177,-2.176,-2.1759,-2.1764,-2.176,-2.177,-2.1758,-2.1761,-2.1761,-2.1761,-2.179,-2.1796,-2.1815,-2.178,-2.1781,-2.1781,0,-2.1784,-2.1785,-2.1799,-2.1795,-2.1796,-2.1802,-2.1802,-2.1806,-2.1804,-2.18,-2.1801,-2.1793,-2.1799,-2.1787,-2.1795,-2.1787,-2.1788,-2.1785,-2.1786,-2.1785,-2.1772,-2.1789,-2.1821,-2.1823,-2.1785,-2.1785,-2.1784,0,-2.1808,-2.1814,-2.1822,-2.1822,-2.1817,-2.1822,-2.182,-2.1817,-2.1818,-2.1819,-2.1819,-2.182,-2.182,-2.1821,-2.1813,-2.1806,-2.1821,-2.1809,-2.1818,-2.1818,-2.1821,-2.1821,-2.1852,-2.1823,-2.1823,-2.1823,-2.1823,0,-2.1835,-2.1843,-2.1833,-2.1838,-2.1847,-2.1838,-2.1847,-2.1844,-2.1841,-2.1845,-2.1835,-2.1839,-2.1829,-2.1831,-2.1825,-2.1831,-2.1832,-2.1829,-2.1827,-2.1829,-2.1829,-2.1828,-2.1826,-2.1824,-2.1824,-2.1824,-2.1824,0,-2.1863,-2.1857,-2.1865,-2.186,-2.1858,-2.1865,-2.186,-2.1864,-2.186,-2.1864,-2.1865,-2.1857,-2.186,-2.1852,-2.1853,-2.1849,-2.1858,-2.1855,-2.1859,-2.1857,-2.1866,-2.1864,-2.1897,-2.19,-2.1871,-2.1871,-2.1871,0,-2.188,-2.1886,-2.1881,-2.1883,-2.1882,-2.1885,-2.1886,-2.1877,-2.1878,-2.1876,-2.188,-2.1881,-2.1882,-2.1886,-2.188,-2.188,-2.1876,-2.1887,-2.1876,-2.1877,-2.1874,-2.1874,-2.1874,-2.1889,-2.189,-2.189,-2.189,0,-2.1909,-2.1906,-2.1907,-2.1908,-2.1909,-2.1909,-2.1908,-2.191,-2.1901,-2.1903,-2.1905,-2.1905,-2.1906,-2.1907,-2.1906,-2.1903,-2.1895,-2.1894,-2.1896,-2.1897,-2.1899,-2.1897,-2.1864,-2.1893,-2.1893,-2.1892,-2.1892,-2.1892,-2.1931,-2.1936,-2.1933,-2.1935,-2.1933,-2.1932,-2.1936,-2.1931,-2.1933,-2.1933,-2.1927,-2.193,-2.1927,-2.1925,-2.1923,-2.1924,-2.1919,-2.1922,-2.1922,-2.1923,-2.1924,-2.19,-2.1924,-2.1924,-2.1924,-2.1924,-2.1924,0,-2.1959,-2.1957,-2.1959,-2.1958,-2.1959,-2.1951,-2.195,-2.1951,-2.1954,-2.1951,-2.1952,-2.1954,-2.1954,-2.1948,-2.1948,-2.195,-2.1946,-2.195,-2.195,-2.1949,-2.1929,-2.1927,-2.1954,-2.1954,-2.1954,-2.1954,-2.1954,-2.1954,-2.1974,-2.1981,-2.1976,-2.1982,-2.1979,-2.1981,-2.1981,-2.198,-2.1978,-2.198,-2.1981,-2.1977,-2.1973,-2.1972,-2.1972,-2.197,-2.197,-2.1975,-2.1972,-2.1953,-2.195,-2.1948,-2.1945,-2.1975,-2.1975,-2.1991,-2.1991,-2.1991]}]]